Starlink 30545

operational
NORAD ID: 58000 Int'l Des: 2023-153 Owner: SPXS Country: US Constellation: starlink
LEOCIRCULAR

About Starlink 30545

Description loading...

Live Position

Loading 3D Globe...

Upcoming Passes

Altitude History

Altitude vs Time

uPlot chart will show altitude changes over time

Two-Line Element Set

1 58000U 23153K 25304.70619576 .00000304 00000-0 37594-4 0 9991
2 58000 43.0044 49.6288 0001175 275.1430 84.9278 15.02537017115470
Epoch: Oct 31, 2025 • Age: 22 hours

Current Status

Altitude 571.6 km
Velocity 7.58 km/s
Sub-Earth Point -43.01°S, 44.69°E
Launch Date Oct 5, 2023
Age 2 years
Type internet

Technical Details

Classification Payload
Mass 730.00 kg
Dry Mass 700.00 kg
Total Mass 730.00 kg
Length 0.30 m
Diameter 4.10 m
Span 29.00 m
Shape Box + pan
Manufacturer SPXS
Bus Type Starlink V2M
Phase Status In Orbit
Owner/State SPXS/US

Large Constellations

Loading constellations...